Regional Weather Roundup
Issued by NWS

Home | Current Version | Previous Version | Graphics & Text | Print | Product List | Glossary On
Versions: 1 2 3 4 5 6 7 8 9 10 11 12 13 14 15 16 17 18 19 20 21 22 23 24 25 26 27 28 29 30 31 32 33 34 35 36 37 38 39 40 41 42 43 44 45 46 47 48 49 50
000
ASUS45 KTFX 232119
RWRMT
MONTANA HOURLY WEATHER ROUNDUP
NATIONAL WEATHER SERVICE GREAT FALLS MT
319 PM MDT WED JUL 23 2014

NOTE: "FAIR" INDICATES FEW OR NO CLOUDS BELOW 12000 FEET WITH NO
SIGNIFICANT WEATHER AND/OR OBSTRUCTIONS TO VISIBILITY.

* THESE STATIONS ARE NOT UNDER NWS QUALITY CONTROL. THEY DO NOT
   REPORT WEATHER SUCH AS PRECIPITATION OR FOG.

MTZ001>007-043-232200-
WEST OF THE DIVIDE
CITY           SKY/WX    TMP DP  RH WIND       PRES   REMARKS
KALISPELL      SUNNY     82  54  38 VRB3      29.99F
MISSOULA       SUNNY     90  50  25 S20       29.97F
BUTTE          PTSUNNY   81  46  29 VRB3      30.16F
MULLAN PASS    SUNNY     72  48  43 VRB7      30.14F
* ESSEX        N/A       83  48  30 S2G11      N/A
* LINCOLN      N/A       82  55  40 N3         N/A   HI  81
* LOOKOUT PASS N/A       79  50  36 S6G12      N/A
* POLSON       N/A       83  55  38 W2G8       N/A
* RONAN APT    SUNNY     81  63  54 N5         N/A   HI  82
* SEELEY LAKE  N/A       82  51  34 SE4G13     N/A
* THOMP F APT  SUNNY     83  39  21 S11G20     N/A
* YAAK HILL    N/A       87  49  27 SW3        N/A
$$

MTZ008-052>055-232200-
SOUTHWEST MONTANA
CITY           SKY/WX    TMP DP  RH WIND       PRES   REMARKS
BOZEMAN        PTCLDY    84  50  31 E5        30.10F
DILLON         PTSUNNY   82  48  31 N8        30.12F
W YELLOWSTONE  PTCLDY    82  28  14 SW13G26   30.27F
* THREE FORKS  PTSUNNY   82  61  49 N/A        N/A   HI  83
* BOULDER HILL N/A       78  45  31 S11G17     N/A
* MONIDA PASS  N/A       80  35  20 S17G26     N/A
* RAYNOLDS PAS N/A       81  65  58 S13G27     N/A   HI  83
* WHITEHALL    N/A       84  53  34 E3G9       N/A
* WISE RIVER   N/A       79  45  30 E8G14      N/A
$$

MTZ009>010-012-014-046-048-049-054-232200-
EAST SLOPES AND CENTRAL MONTANA
CITY           SKY/WX    TMP DP  RH WIND       PRES   REMARKS
CUT BANK       SUNNY     82  57  43 SE8       30.04F HI  82
GREAT FALLS    PTCLDY    90  48  24 VRB3      30.01F
HELENA         PTSUNNY   88  54  31 E14G20    30.03F
MALMSTROM AFB  PTCLDY    90  48  24 S9G20     30.01F
* CONRAD       SUNNY     82  63  53 N/A        N/A   HI  83
* DEARBORN     N/A       88  45  22 S15G20     N/A
* EAST GLACIER N/A       79  47  32 W11G19     N/A
* MONARCH      N/A       83  47  28 E8G13      N/A
* ROGERS PASS  N/A       78  49  36 SE12G19    N/A
* SAINT MARY   N/A       78  48  35 S6G14      N/A
* SWEET GRASS  N/A       82  54  38 S11G19     N/A
* WHITE SULPH  N/A       83  51  33 S7G13      N/A
$$

MTZ011-013-016-021-035-040-045-047-050-051-232200-
NORTH CENTRAL MONTANA
CITY           SKY/WX    TMP DP  RH WIND       PRES   REMARKS
HAVRE          SUNNY     91  57  32 E9G24     29.97F
LEWISTOWN      PTCLDY    84  57  40 CALM      30.07F HI  83
* FORT BENTON  PTCLDY    90  52  27 E3        29.98F
* CHESTER      N/A       86  53  32 S5G14      N/A
* DENTON       N/A       88  54  31 S9G16      N/A
* JUDITH GAP   N/A       81  56  42 SE9G17     N/A   HI  81
* LOMA         N/A       91  52  26 S7G14      N/A
$$

MTZ017>020-022>027-061-062-232200-
NORTHEAST MONTANA
CITY           SKY/WX    TMP DP  RH WIND       PRES   REMARKS
GLASGOW        PTCLDY    90  57  33 E22G31    30.01F
GLENDIVE       PTSUNNY   90  64  42 E17G28    30.05F HI  91
JORDAN         SUNNY     93  57  30 SE16G26   30.01F
SIDNEY         PTSUNNY   90  64  42 SE14      30.07F HI  91
WOLF POINT     PTCLDY    91  59  34 E18       30.03F
* BEAVER HILL  N/A       84  64  51 SE14G21    N/A   HI  85
* CIRCLE       N/A       89  64  43 SE14G19    N/A   HI  90
* LINDSAY DVD  N/A       86  60  42 E17G25     N/A   HI  86
* NAVAJO       N/A       84  62  48 E13G22     N/A   HI  85
$$

MTZ028>042-056>058-232200-
SOUTHCENTRAL AND SOUTHEAST MONTANA
CITY           SKY/WX    TMP DP  RH WIND       PRES   REMARKS
BAKER          PTCLDY    86  63  46 SE16G26   30.12F HI  87
BILLINGS       PTCLDY    88  59  38 NE8       30.05F
LIVINGSTON     PTCLDY    91  48  23 VRB7      30.08F
MILES CITY     PTCLDY    93  63  37 SE22G29   29.98F
* LAUREL APT   SUNNY     86  55  35 N/A        N/A
* ROUNDUP APT  PTCLDY    86  57  37 N/A        N/A
* ALZADA       N/A       88  62  42 E12G17     N/A   HI  88
* HYSHAM       N/A       88  58  36 E6         N/A
* LAME DEER    N/A       85  65  51 SE9G16     N/A   HI  87
* REED POINT   N/A       92  53  27 NE4        N/A
* ROSCOE HILL  N/A       86  53  32 N4G9       N/A
$$

REGIONAL REPORTS...DAKOTAS
CITY           SKY/WX    TMP DP  RH WIND       PRES   REMARKS
WILLISTON      PTSUNNY   88  61  40 E16G30    30.10F HI  88
DICKINSON      PTCLDY    82  63  53 SE18G28   30.13F HI  83
CROSBY         N/A       77  73  88 E20G25    30.15F
TIOGA          PTSUNNY   81  66  60 SE17G26   30.18F HI  83
WATFORD CITY   PTCLDY    82  64  55 SE20G26   30.09F HI  84
BISMARCK       SUNNY     82  61  49 SE14G28   30.20F HI  83
GRAND FORKS    PTCLDY    73  55  53 NW3       30.26F
FARGO          PTSUNNY   79  57  47 N5        30.25F
BUFFALO SD     PTCLDY    86  61  43 SE28G33   30.05F HI  86
RAPID CITY     SUNNY     82  64  55 SE18      30.16F HI  84
$$

REGIONAL REPORTS...WYOMING/IDAHO/WASHINGTON
CITY           SKY/WX    TMP DP  RH WIND       PRES   REMARKS
GILLETTE       SUNNY     91  59  34 SE23G32   30.12F
SHERIDAN       SUNNY     93  61  34 SE15      30.04F
YELLOWSTONE LA PTCLDY    79  30  17 VRB6G17   30.41S
SALMON         PTCLDY    84  52  33 N7        29.98F
MULLAN PASS    SUNNY     72  48  43 VRB7      30.14S
SAND POINT     PTCLDY    82  54  38 N3        29.90F
SPOKANE        PTSUNNY   84  50  31 S10G18    29.89F
$$

REGIONAL REPORTS...ALBERTA
CITY           SKY/WX    TMP DP  RH WIND       PRES   REMARKS
CALGARY        SUNNY     77  52  42 E8        30.02F
LETHBRIDGE     SUNNY     77  61  58 E10       30.01F
MEDICINE HAT   PTCLDY    88  54  31 S15       29.99F
EDMONTON       PTSUNNY   72  61  68 SW5       29.96F
WATERTON GATE  N/A       77  54  45 E7         N/A
CARDSTON       N/A       79  57  47 SE3        N/A
MILK RIVER     N/A       82  50  33 S7         N/A
$$

REGIONAL REPORTS...SASKATCHEWAN
CITY           SKY/WX    TMP DP  RH WIND       PRES   REMARKS
SWIFT CURRENT  LGT RAIN  70  63  79 SE12      30.11R
MOOSE JAW      PTSUNNY   79  63  58 SE15G21   30.13F
REGINA         CLOUDY    81  59  47 SE20G26   30.15F HI  81
VAL MARIE      N/A       86  50  29 SE14G20    N/A
ASSINIBOIA     N/A       79  57  47 E15G22     N/A
CORONACH       N/A       84  61  46 E15        N/A   HI  84

$$



USA.gov is the U.S. government's official web portal to all federal, state and local government web resources and services.